SCP
0 1 2 3 3 2 2 1 1 1 1 0 1 1 1 2 2 1 1 1 1 1 1 1 1 2 2 2 1 1 1 1 1 1 1 1 1 1 1 1 1 0 1
0 1 2 2 2 2 1 1 1 1 1 1 1 1 1 2 2 1 1 1 1 1 1 1 1 2 3 2 2 1 1 1 1 1 1 1 1 1 1 1 1 1 1
1 1 1 1 1 1 1 1 1 1 1 1 1 1 1 2 1 1 1 1 1 1 1 1 2 2 3 2 2 1 1 1 1 1 1 1 1 1 1 1 1 1 1
0 1 1 1 1 1 1 1 1 1 1 1 1 1 1 1 1 1 1 1 1 1 1 1 2 2 2 2 2 2 2 2 1 1 1 1 0 0 1 1 1 0 0
0 1 1 1 1 1 1 1 1 1 1 1 1 1 1 1 1 1 1 1 0 0 1 1 2 2 2 2 2 2 2 2 1 1 1 0 0 0 1 0 0 0 0
0 0 1 1 1 1 1 1 1 1 1 1 1 1 1 1 1 1 1 1 1 0 1 1 1 1 2 2 2 2 2 1 1 1 0 0 0 0 1 0 0 0 0
0 0 1 1 1 1 1 1 1 1 1 1 1 1 1 1 1 1 1 1 1 1 1 1 1 1 1 1 1 1 1 1 1 0 0 0 0 0 0 0 0 0 0
0 0 0 1 1 1 1 1 1 1 1 1 1 1 1 1 1 1 1 1 1 1 1 1 1 1 1 1 1 1 1 1 1 0 0 0 0 0 0 0 0 0 0
0 0 0 0 1 1 1 1 1 1 1 1 1 1 1 1 1 1 1 1 1 1 1 1 1 1 1 1 1 1 1 1 0 0 0 0 0 0 0 0 0 0 0
0 0 0 0 0 1 1 1 1 1 1 1 1 1 1 1 1 1 1 1 1 2 1 1 1 1 1 1 1 1 1 1 0 0 0 0 0 0 0 0 0 0 0
0 0 0 0 0 0 0 0 0 0 1 1 1 1 1 1 1 1 1 1 2 2 1 1 1 0 0 1 1 1 1 0 0 0 0 0 0 0 0 0 0 0 0
0 0 0 0 0 0 0 0 0 0 0 1 1 1 1 1 1 1 1 1 1 1 1 1 1 0 0 1 1 1 1 0 0 0 0 0 1 1 1 1 1 1 0
1 0 0 0 0 0 0 0 0 0 0 0 0 0 0 0 0 1 1 1 1 1 1 1 1 1 1 1 1 1 0 0 0 0 0 0 1 1 1 1 1 1 1
0 0 0 0 0 1 1 0 0 0 0 0 0 0 0 0 0 0 0 0 0 0 0 0 0 1 1 1 0 0 0 0 0 0 0 0 1 1 1 1 1 1 1
0 0 0 1 1 1 1 0 0 0 0 0 0 0 0 0 0 0 0 0 0 0 0 0 0 0 0 0 0 0 0 0 0 0 0 1 1 1 2 2 1 1 1
0 1 1 1 1 1 1 1 0 0 0 0 0 0 0 0 0 0 0 0 0 0 0 0 0 0 0 0 0 0 0 0 0 0 0 1 1 1 2 2 1 1 1
1 1 1 2 2 1 1 1 0 0 0 0 0 0 0 0 0 0 0 0 0 0 0 0 0 0 0 0 0 0 0 0 0 0 0 1 1 1 2 2 1 1 1
1 2 2 3 2 2 1 1 0 0 0 0 0 0 0 0 0 0 0 0 0 0 0 0 0 0 0 0 0 0 0 0 0 0 0 0 1 1 1 1 1 1 1
2 3 3 3 3 2 1 1 0 0 0 0 0 0 0 0 0 0 0 0 0 0 0 0 0 0 0 0 0 0 0 0 0 0 0 0 1 1 1 1 1 1 1
3 3 3 3 2 2 1 1 0 0 0 0 0 0 0 0 0 0 0 0 0 0 0 0 0 0 0 0 0 0 0 0 0 1 1 1 0 0 0 0 1 1 1
4 4 3 3 2 1 1 1 0 0 0 0 0 0 0 0 0 0 0 0 0 0 0 0 0 0 0 0 0 0 0 0 0 1 1 1 1 0 0 0 0 1 1
4 3 3 2 2 1 1 0 0 0 0 0 0 0 0 0 0 0 1 1 1 1 1 0 0 0 0 0 0 1 1 1 1 1 1 1 0 0 0 0 0 0 0
3 3 2 2 1 1 1 1 0 0 0 0 0 0 0 0 0 1 1 1 1 1 1 1 0 1 1 0 1 1 1 1 1 1 1 0 0 0 0 0 0 0 0
2 2 2 1 1 1 1 1 1 0 0 0 0 0 0 0 0 0 1 1 1 1 1 1 1 1 1 1 1 1 1 1 1 1 1 0 0 0 0 0 0 0 0
2 2 1 1 1 1 1 1 1 1 0 0 0 0 0 0 0 0 0 0 1 1 1 1 1 1 1 1 1 1 1 1 1 1 0 0 0 0 0 0 0 0 0
2 1 1 1 1 1 1 1 1 1 1 0 0 0 0 0 0 0 0 0 1 1 1 1 1 1 1 1 1 1 1 1 1 0 0 0 0 0 0 0 0 0 0
Wind_Speed
1 2 3 7 9 10 11 12 12 12 13 13 13 14 15 15 15 15 15 15 15 14 14 14 15 15 16 16 16 16 15 15 15 15 15 14 14 14 13 14 13 10 14
0 1 4 7 9 10 11 11 11 12 12 13 13 14 14 14 14 14 14 14 15 15 15 15 15 16 16 16 15 15 15 14 14 14 14 13 13 13 13 13 12 9 13
2 2 4 7 9 10 11 11 11 12 12 13 13 13 14 13 13 13 14 14 15 15 15 15 16 16 16 15 15 14 14 13 13 13 12 8 9 12 12 12 13 12 12
3 2 4 8 9 11 11 11 11 12 13 13 13 13 13 13 13 13 13 14 14 15 15 15 15 15 15 14 14 13 13 13 13 12 7 6 6 11 12 12 12 12 11
3 3 4 9 10 11 11 11 11 12 13 13 12 12 12 12 12 12 12 13 13 14 14 14 14 14 13 13 12 12 12 12 12 9 6 5 5 10 11 11 11 11 11
3 3 3 8 10 10 11 11 11 12 12 12 12 11 11 11 11 11 11 12 12 13 13 13 13 12 12 11 11 11 11 12 10 7 6 5 4 9 11 11 11 10 10
3 2 3 8 9 10 10 10 10 11 11 11 11 10 10 10 10 10 10 11 11 11 12 12 11 11 11 10 10 9 9 11 7 6 5 4 4 8 10 10 10 10 9
3 3 3 7 8 9 9 9 10 10 10 10 10 9 9 9 9 9 10 10 10 11 11 11 10 10 9 9 9 8 9 9 7 6 5 4 6 8 10 9 10 10 9
3 3 3 3 4 7 8 8 8 8 9 9 10 9 9 9 8 9 9 9 9 10 10 10 9 9 8 8 7 7 7 7 5 4 5 3 7 9 9 9 9 9 9
3 3 3 4 4 3 4 6 7 7 8 8 8 9 8 8 8 8 7 8 9 9 9 8 8 7 7 7 6 6 7 6 4 4 3 4 8 9 9 9 9 9 8
2 2 3 3 3 3 3 3 4 5 6 6 6 7 6 4 4 5 6 7 7 7 7 7 7 6 5 5 5 5 5 2 3 3 3 6 8 8 8 8 8 8 8
2 1 1 2 2 2 2 3 3 3 3 4 3 4 3 3 3 4 5 5 5 5 5 5 5 5 4 3 3 3 2 2 2 2 3 7 8 8 8 8 8 8 8
2 2 2 1 1 1 1 2 2 2 2 3 3 3 3 2 2 3 2 3 3 3 3 3 3 3 3 2 2 2 2 1 1 2 3 6 7 8 8 8 8 8 8
2 2 2 2 1 1 1 1 1 1 1 1 1 1 2 1 1 1 1 1 2 1 2 2 2 2 3 2 2 1 1 1 1 1 2 5 7 7 8 8 8 8 8
3 3 2 2 2 1 1 1 1 1 1 1 1 0 1 1 1 1 1 1 1 1 1 2 2 2 2 1 1 1 1 1 1 1 1 4 5 7 8 8 8 8 8
4 4 3 3 3 2 2 1 1 1 1 1 0 0 1 1 1 1 1 1 1 1 1 1 1 1 1 1 1 1 0 0 0 1 1 2 4 5 6 7 7 7 8
4 3 3 3 2 3 2 2 1 1 1 1 0 1 1 2 2 1 1 1 1 1 2 2 2 1 1 2 2 1 1 0 0 0 1 1 1 3 4 5 5 6 6
4 3 3 4 3 2 2 2 1 1 1 1 0 0 1 2 2 2 1 0 1 1 2 2 2 2 1 1 1 1 1 1 1 0 0 0 1 1 2 3 3 4 5
5 5 4 3 4 3 2 2 1 1 1 0 0 0 1 1 2 2 1 1 1 1 1 1 2 2 2 2 1 2 1 1 1 1 1 0 0 1 1 0 2 2 4
4 4 4 3 3 3 2 2 2 1 1 0 0 0 0 1 1 2 1 1 2 1 1 2 2 2 2 2 2 3 2 2 2 2 2 1 1 0 0 0 1 1 2
4 4 4 4 3 2 2 2 1 0 0 1 0 0 0 0 1 2 2 1 1 1 2 2 2 2 2 2 2 2 3 3 3 3 2 2 2 2 2 2 1 1 2
5 4 4 4 3 3 2 1 1 1 0 0 1 1 1 1 1 1 2 1 1 1 1 2 3 2 1 2 2 2 1 2 3 3 3 2 2 2 2 2 2 2 1
6 5 5 4 4 3 2 2 2 2 2 1 1 1 1 1 1 1 2 2 2 2 2 2 2 3 2 1 1 2 2 2 0 2 3 3 3 3 2 2 3 2 2
6 5 4 4 4 3 3 3 2 2 1 1 0 0 1 1 1 1 1 2 2 1 1 1 2 1 2 2 1 1 1 2 2 1 1 2 3 3 3 2 2 2 2
6 5 4 4 3 3 3 3 3 2 1 1 1 1 1 1 1 1 1 1 1 1 1 1 1 1 2 2 1 1 1 1 1 2 1 0 1 2 2 2 2 2 2
5 5 4 4 3 3 3 3 3 3 3 2 1 1 0 1 1 1 1 1 1 1 1 1 1 1 1 1 1 1 2 2 2 2 2 1 0 1 1 2 2 2 2
Wind_Direction
325 338 39 68 75 83 91 94 96 98 101 101 103 107 109 109 109 110 111 111 112 113 113 116 120 122 121 120 119 118 119 118 119 120 120 120 120 119 119 117 117 115 118
86 32 65 78 83 88 95 97 97 97 101 103 104 104 107 106 108 109 110 114 116 116 114 115 118 120 121 121 121 122 122 122 120 121 121 123 124 123 122 121 119 122 123
87 59 76 84 89 93 98 97 97 99 103 104 104 104 104 104 105 107 109 112 114 114 114 114 114 117 119 121 122 123 124 122 120 120 117 115 124 125 125 124 123 126 125
95 75 85 92 91 92 97 96 97 99 103 105 105 104 103 103 105 107 108 110 113 115 114 114 115 117 118 121 124 125 125 124 123 119 110 118 125 128 128 128 129 129 128
82 76 97 101 97 95 94 93 94 98 104 105 105 103 103 105 106 107 109 112 113 114 114 114 115 117 119 122 125 128 128 129 126 116 109 110 114 133 134 133 134 134 132
84 78 107 110 104 99 95 94 95 100 104 104 104 104 104 105 107 108 111 113 115 116 116 116 116 119 120 122 123 125 129 132 123 117 117 119 123 141 140 140 140 139 137
93 78 105 116 108 103 100 98 98 100 105 106 106 107 106 105 106 107 108 113 117 118 117 117 118 120 120 122 124 127 134 138 126 127 129 132 145 150 147 146 147 147 145
88 73 92 117 110 107 104 101 99 99 106 108 107 107 108 108 104 103 108 110 115 119 119 116 117 120 122 125 127 130 135 141 135 137 139 149 163 162 157 155 154 154 153
69 62 53 70 96 108 109 105 102 100 101 104 103 102 100 100 99 101 106 109 113 117 116 116 116 119 122 122 124 128 131 137 126 139 155 158 169 168 165 163 159 160 159
58 50 50 50 55 63 84 103 106 105 101 101 102 101 99 98 95 96 98 105 110 113 117 118 118 117 119 120 121 121 121 119 129 146 156 173 178 176 174 170 168 167 167
78 44 49 53 53 62 69 90 91 100 96 92 90 92 82 59 60 72 88 103 108 111 114 115 113 109 103 105 108 109 108 112 135 149 163 179 179 179 176 175 176 176 177
175 140 77 78 71 66 73 63 48 57 62 64 61 64 64 58 52 62 62 86 104 107 107 103 100 95 82 79 86 83 96 118 137 164 177 178 181 184 184 184 185 183 183
184 173 143 131 100 83 60 66 57 52 58 61 64 68 68 59 48 47 45 42 51 69 70 70 68 72 81 86 87 96 115 135 157 173 180 184 189 192 192 191 192 190 191
166 188 165 157 142 124 99 74 79 71 68 66 52 61 79 67 54 57 61 51 47 56 67 65 69 67 73 85 103 116 138 155 165 170 185 194 199 199 196 195 195 194 196
183 196 183 168 170 157 129 122 112 116 106 101 64 45 111 106 98 91 82 77 77 82 91 90 82 66 64 70 105 130 146 156 180 186 206 206 208 207 202 202 203 203 206
190 197 183 177 176 156 150 160 149 137 128 114 128 200 152 141 137 123 104 98 103 114 110 109 105 84 66 71 64 94 144 165 196 189 220 237 228 218 214 212 211 211 214
184 178 173 174 159 155 164 171 156 148 140 156 205 203 161 148 142 132 121 120 136 128 116 107 99 90 88 78 62 57 76 92 130 177 207 241 257 235 222 214 213 214 218
167 163 172 167 146 147 151 146 130 130 137 176 178 137 147 151 147 133 130 138 126 115 119 123 118 100 86 84 65 31 49 68 90 99 156 220 235 258 250 217 217 222 228
169 163 161 146 138 138 126 111 112 108 120 157 134 118 127 138 144 139 140 150 120 116 128 144 121 129 120 100 85 57 36 31 31 49 46 343 224 238 246 282 256 246 244
164 159 154 139 129 120 101 86 74 59 41 49 74 99 121 120 128 124 118 116 117 121 116 123 126 121 127 118 86 63 42 33 38 38 28 29 41 66 41 10 338 330 306
154 155 155 149 143 124 107 110 110 97 4 17 346 260 176 127 129 130 129 123 126 142 151 141 130 123 119 120 97 64 38 41 45 39 39 45 39 37 48 43 30 10 356
168 169 166 166 160 156 145 140 139 126 110 96 1 16 22 94 138 134 138 141 154 153 150 151 147 139 162 155 130 119 58 25 31 32 41 52 40 38 43 41 44 41 28
178 182 182 179 175 174 151 109 82 64 43 36 22 0 360 43 79 105 148 157 164 160 172 179 169 162 169 184 167 156 159 183 48 23 33 40 37 36 32 32 36 29 27
190 180 174 177 175 172 154 144 146 155 177 211 192 310 351 13 42 113 139 144 145 148 168 198 167 166 160 180 185 181 168 151 150 135 26 30 34 35 27 27 22 21 29
179 171 170 172 174 167 163 162 154 156 177 147 101 78 19 6 14 47 116 116 122 131 144 154 149 153 157 166 170 157 121 96 127 150 172 52 36 21 22 17 12 17 26
166 164 163 166 184 177 171 170 171 174 172 161 164 164 75 7 10 24 92 95 99 101 118 137 137 142 145 149 160 167 160 160 167 159 162 158 105 15 19 23 20 15 25